Lid_Strength_Index
5 5 5 4 4 4 3 3 2 2 2 2 2 1 1 1 1 1 1 2 3 3 2 1 0 0 0 0 1 1 1 1 1
6 5 5 5 4 3 3 3 3 3 2 2 2 2 1 1 1 1 1 2 2 2 2 1 0 0 0 0 0 2 1 1 1
6 5 5 4 4 3 3 3 2 2 2 2 2 1 1 1 1 1 1 1 2 2 2 1 0 0 0 0 0 1 2 2 1
6 6 5 4 4 3 3 2 2 2 2 2 2 2 1 1 1 1 1 2 2 1 1 1 1 1 1 1 1 1 2 2 1
5 5 5 4 4 3 3 3 3 3 2 2 2 2 1 1 1 1 1 1 2 2 1 1 1 0 1 1 1 1 1 1 1
5 5 5 4 4 4 3 3 3 3 2 2 2 2 2 2 2 1 1 1 1 1 2 1 1 1 1 1 1 1 1 1 1
6 5 5 4 4 4 3 3 3 3 2 2 2 2 2 2 2 2 1 1 1 1 1 2 2 1 1 1 1 1 1 1 1
7 5 5 5 4 4 3 3 3 3 2 2 2 2 2 2 2 1 1 1 1 1 1 1 1 1 1 1 1 1 1 1 1
6 5 5 5 4 4 4 3 3 3 3 2 2 2 2 2 2 2 2 1 1 1 1 1 1 1 1 1 1 3 3 1 1
6 5 5 5 4 4 3 3 3 3 3 2 2 2 2 2 2 2 2 1 1 2 2 1 1 1 1 1 1 4 4 4 1
7 6 5 4 4 3 3 3 3 3 2 2 2 3 2 2 2 2 2 2 2 2 1 2 2 1 1 1 1 5 6 4 1
6 6 5 5 4 4 3 3 3 3 3 2 3 3 3 2 2 2 2 2 2 2 2 2 2 1 1 1 1 7 7 6 2
7 5 4 4 4 4 4 4 3 3 3 3 3 3 2 2 2 2 2 2 2 2 2 2 1 2 1 3 1 6 8 7 2
9 9 7 4 4 4 4 4 3 3 3 3 3 2 2 2 2 2 2 2 2 2 2 2 2 2 1 1 2 2 9 10 2
12 11 9 8 5 4 3 3 3 4 4 3 2 2 2 2 2 2 2 2 2 2 2 2 2 2 2 2 1 7 9 10 9
11 11 11 8 8 8 6 4 3 4 3 2 2 3 3 2 2 2 2 2 2 2 2 3 3 3 3 2 1 1 10 11 11
10 11 11 11 7 7 7 7 5 3 2 2 2 3 3 3 3 3 2 2 2 2 3 3 3 3 3 3 2 2 2 6 7
10 10 11 10 10 7 7 6 7 5 3 3 3 3 3 3 3 4 3 4 5 2 2 3 3 3 2 3 3 2 5 5 3
10 10 9 8 8 6 7 7 6 5 3 2 3 3 3 3 3 3 4 6 9 16 17 17 17 16 8 3 8 11 14 14 14
9 9 8 8 7 6 5 5 7 7 4 2 3 4 3 3 4 4 6 7 7 7 12 17 19 19 17 17 12 16 17 17 17